| time (UTC) | temp F | wind direction | speed knots | gust knots | rain 1hr in | rain 24hr in | rain mn in | humidity % | barometer mb |
| 20260508092708 | 39 | 228 | 0.9 | 1.7 | 0.00 | 0.00 | 0.00 | 86 | 1015.9 |
| 20260508092206 | 39 | 217 | 0.0 | 0.0 | 0.00 | 0.00 | 0.00 | 85 | 1015.9 |
| 20260508091703 | 39 | 229 | 0.0 | 0.0 | 0.00 | 0.00 | 0.00 | 85 | 1016.0 |
| 20260508091200 | 39 | 227 | 0.0 | 0.0 | 0.00 | 0.00 | 0.00 | 85 | 1015.9 |
| 20260508090658 | 39 | 227 | 0.0 | 0.9 | 0.00 | 0.00 | 0.00 | 85 | 1016.0 |
| 20260508090155 | 39 | 217 | 0.0 | 0.0 | 0.00 | 0.00 | 0.00 | 85 | 1016.0 |
| 20260508085651 | 39 | 217 | 0.0 | 0.0 | 0.00 | 0.00 | 0.00 | 85 | 1016.0 |
| 20260508085149 | 39 | 214 | 0.0 | 0.9 | 0.00 | 0.00 | 0.00 | 85 | 1015.7 |
| 20260508084645 | 39 | 218 | 0.0 | 0.0 | 0.00 | 0.00 | 0.00 | 86 | 1015.8 |
| 20260508084142 | 39 | 200 | 0.0 | 0.0 | 0.00 | 0.00 | 0.00 | 85 | 1015.9 |
| 20260508083640 | 39 | 235 | 0.0 | 0.0 | 0.00 | 0.00 | 0.00 | 84 | 1016.0 |
| 20260508083137 | 40 | 235 | 0.0 | 0.9 | 0.00 | 0.00 | 0.00 | 84 | 1016.0 |
| 20260508082632 | 40 | 241 | 0.0 | 0.9 | 0.00 | 0.00 | 0.00 | 84 | 1015.8 |
| 20260508082130 | 40 | 240 | 0.0 | 0.0 | 0.00 | 0.00 | 0.00 | 84 | 1015.9 |
| 20260508081627 | 40 | 241 | 0.0 | 0.9 | 0.00 | 0.00 | 0.00 | 84 | 1015.9 |
| 20260508081123 | 40 | 240 | 0.0 | 0.0 | 0.00 | 0.00 | 0.00 | 83 | 1015.9 |
| 20260508080621 | 40 | 232 | 0.0 | 0.9 | 0.00 | 0.00 | 0.00 | 82 | 1015.9 |
| 20260508080119 | 40 | 227 | 0.9 | 1.7 | 0.00 | 0.00 | 0.00 | 83 | 1016.0 |
| 20260508075615 | 40 | 229 | 0.9 | 0.9 | 0.00 | 0.00 | 0.00 | 83 | 1015.9 |
| 20260508075112 | 40 | 229 | 0.0 | 0.0 | 0.00 | 0.00 | 0.00 | 84 | 1015.9 |
| 20260508074610 | 40 | 228 | 0.0 | 0.0 | 0.00 | 0.00 | 0.00 | 84 | 1015.9 |
| 20260508074107 | 40 | 229 | 0.9 | 0.9 | 0.00 | 0.00 | 0.00 | 83 | 1015.9 |
| 20260508073604 | 40 | 200 | 0.0 | 0.0 | 0.00 | 0.00 | 0.00 | 83 | 1015.7 |
| 20260508073101 | 40 | 226 | 0.0 | 0.9 | 0.00 | 0.00 | 0.00 | 82 | 1015.7 |
| 20260508072551 | 40 | 200 | 0.0 | 0.0 | 0.00 | 0.00 | 0.00 | 82 | 1016.0 |
| 20260508072049 | 40 | 200 | 0.0 | 0.0 | 0.00 | 0.00 | 0.00 | 82 | 1015.9 |
| 20260508071547 | 40 | 189 | 0.0 | 0.0 | 0.00 | 0.00 | 0.00 | 83 | 1015.9 |
| 20260508071045 | 40 | 189 | 0.0 | 0.0 | 0.00 | 0.00 | 0.00 | 83 | 1015.8 |
| 20260508070542 | 40 | 200 | 0.0 | 0.0 | 0.00 | 0.00 | 0.00 | 82 | 1016.0 |
| 20260508070040 | 40 | 200 | 0.0 | 0.0 | 0.00 | 0.00 | 0.00 | 83 | 1015.8 |
| 20260508065537 | 40 | 200 | 0.0 | 0.0 | 0.00 | 0.00 | 0.00 | 83 | 1016.0 |
| 20260508065035 | 40 | 201 | 0.0 | 0.0 | 0.00 | 0.00 | 0.00 | 84 | 1016.0 |
| 20260508064532 | 40 | 194 | 0.0 | 0.0 | 0.00 | 0.00 | 0.00 | 84 | 1015.8 |
| 20260508064030 | 40 | 164 | 0.0 | 0.0 | 0.00 | 0.00 | 0.00 | 82 | 1016.0 |
| 20260508063527 | 41 | 162 | 0.0 | 1.7 | 0.00 | 0.00 | 0.00 | 81 | 1016.0 |
| 20260508063025 | 40 | 196 | 0.0 | 0.0 | 0.00 | 0.00 | 0.00 | 81 | 1016.4 |
| 20260508062517 | 41 | 200 | 0.0 | 0.0 | 0.00 | 0.00 | 0.00 | 80 | 1016.2 |
| 20260508062013 | 41 | 200 | 0.0 | 0.0 | 0.00 | 0.00 | 0.00 | 80 | 1016.2 |
| 20260508061511 | 41 | 200 | 0.0 | 0.0 | 0.00 | 0.00 | 0.00 | 80 | 1016.2 |
| 20260508061007 | 41 | 200 | 0.0 | 0.0 | 0.00 | 0.00 | 0.00 | 80 | 1016.2 |
| 20260508060505 | 41 | 200 | 0.0 | 0.0 | 0.00 | 0.00 | 0.00 | 80 | 1016.2 |
| 20260508060001 | 41 | 200 | 0.0 | 0.0 | 0.00 | 0.00 | 0.00 | 80 | 1016.4 |
| 20260508055458 | 41 | 200 | 0.0 | 0.0 | 0.00 | 0.00 | 0.00 | 81 | 1016.2 |
| 20260508054954 | 41 | 200 | 0.0 | 0.0 | 0.00 | 0.00 | 0.00 | 81 | 1016.2 |
| 20260508054451 | 41 | 200 | 0.0 | 0.0 | 0.00 | 0.00 | 0.00 | 81 | 1016.4 |
| 20260508053948 | 41 | 200 | 0.0 | 0.0 | 0.00 | 0.00 | 0.00 | 80 | 1016.3 |
| 20260508053445 | 41 | 200 | 0.0 | 0.0 | 0.00 | 0.00 | 0.00 | 79 | 1016.3 |
| 20260508052943 | 41 | 200 | 0.0 | 0.0 | 0.00 | 0.00 | 0.00 | 80 | 1016.4 |
| 20260508052440 | 41 | 200 | 0.0 | 0.0 | 0.00 | 0.00 | 0.00 | 79 | 1016.4 |
| 20260508051937 | 41 | 200 | 0.0 | 0.0 | 0.00 | 0.00 | 0.00 | 79 | 1016.5 |
| 20260508051432 | 42 | 200 | 0.0 | 0.0 | 0.00 | 0.00 | 0.00 | 79 | 1016.6 |
| 20260508050928 | 42 | 200 | 0.0 | 0.0 | 0.00 | 0.00 | 0.00 | 78 | 1016.5 |
| 20260508050425 | 42 | 197 | 0.0 | 0.0 | 0.00 | 0.00 | 0.00 | 78 | 1016.5 |
| 20260508045921 | 42 | 197 | 0.0 | 0.0 | 0.00 | 0.00 | 0.00 | 77 | 1016.5 |
| 20260508045419 | 41 | 212 | 0.0 | 0.0 | 0.00 | 0.00 | 0.00 | 79 | 1016.5 |
| 20260508044916 | 42 | 212 | 0.0 | 0.0 | 0.00 | 0.00 | 0.00 | 78 | 1016.5 |
| 20260508044413 | 42 | 212 | 0.0 | 0.0 | 0.00 | 0.00 | 0.00 | 78 | 1016.5 |
| 20260508043903 | 42 | 212 | 0.0 | 0.0 | 0.00 | 0.00 | 0.00 | 76 | 1016.6 |
| 20260508043401 | 43 | 212 | 0.0 | 0.0 | 0.00 | 0.00 | 0.00 | 75 | 1016.3 |
| 20260508042856 | 43 | 212 | 0.0 | 0.0 | 0.00 | 0.00 | 0.00 | 74 | 1016.3 |
| 20260508042354 | 42 | 215 | 0.0 | 0.0 | 0.00 | 0.00 | 0.00 | 76 | 1016.3 |
| 20260508041851 | 43 | 215 | 0.0 | 0.0 | 0.00 | 0.00 | 0.00 | 75 | 1016.3 |
| 20260508041347 | 43 | 216 | 0.0 | 0.0 | 0.00 | 0.00 | 0.00 | 74 | 1016.4 |
| 20260508040844 | 44 | 216 | 0.0 | 0.0 | 0.00 | 0.00 | 0.00 | 72 | 1016.2 |
| 20260508040341 | 45 | 216 | 0.0 | 0.0 | 0.00 | 0.00 | 0.00 | 71 | 1016.3 |
| 20260508035839 | 45 | 217 | 0.9 | 0.9 | 0.00 | 0.00 | 0.00 | 69 | 1016.3 |
| 20260508035336 | 45 | 217 | 0.9 | 0.9 | 0.00 | 0.00 | 0.00 | 68 | 1016.3 |
| 20260508034832 | 45 | 217 | 0.0 | 0.0 | 0.00 | 0.00 | 0.00 | 68 | 1016.3 |
| 20260508034324 | 45 | 217 | 0.0 | 0.0 | 0.00 | 0.00 | 0.00 | 68 | 1016.2 |
| 20260508033821 | 44 | 268 | 0.0 | 0.0 | 0.00 | 0.00 | 0.00 | 70 | 1016.1 |
| 20260508033319 | 45 | 268 | 0.0 | 0.0 | 0.00 | 0.00 | 0.00 | 70 | 1016.1 |
| 20260508032816 | 45 | 268 | 0.0 | 0.0 | 0.00 | 0.00 | 0.00 | 70 | 1016.0 |
| 20260508032314 | 46 | 268 | 0.0 | 0.0 | 0.00 | 0.00 | 0.00 | 68 | 1016.2 |
| 20260508031810 | 48 | 268 | 0.0 | 0.0 | 0.00 | 0.00 | 0.00 | 58 | 1016.2 |
| 20260508031307 | 47 | 270 | 0.0 | 0.9 | 0.00 | 0.00 | 0.00 | 59 | 1016.2 |
| 20260508030803 | 47 | 273 | 0.0 | 0.9 | 0.00 | 0.00 | 0.00 | 59 | 1016.2 |
| 20260508030301 | 46 | 274 | 0.0 | 0.0 | 0.00 | 0.00 | 0.00 | 60 | 1016.4 |
| 20260508025757 | 46 | 274 | 0.0 | 0.0 | 0.00 | 0.00 | 0.00 | 61 | 1016.4 |
| 20260508025254 | 47 | 274 | 0.0 | 0.0 | 0.00 | 0.00 | 0.00 | 60 | 1016.2 |
| 20260508024750 | 47 | 274 | 0.0 | 0.0 | 0.00 | 0.00 | 0.00 | 59 | 1016.2 |
| 20260508024247 | 48 | 274 | 0.0 | 0.0 | 0.00 | 0.00 | 0.00 | 59 | 1016.3 |
| 20260508023744 | 48 | 277 | 0.0 | 0.0 | 0.00 | 0.00 | 0.00 | 60 | 1016.3 |
| 20260508023242 | 49 | 278 | 0.0 | 0.0 | 0.00 | 0.00 | 0.00 | 58 | 1016.3 |
| 20260508022737 | 49 | 277 | 0.0 | 0.9 | 0.00 | 0.00 | 0.00 | 57 | 1016.1 |
| 20260508022234 | 49 | 277 | 0.0 | 0.0 | 0.00 | 0.00 | 0.00 | 57 | 1016.0 |
| 20260508021731 | 50 | 304 | 0.0 | 0.9 | 0.00 | 0.00 | 0.00 | 56 | 1016.0 |
| 20260508021226 | 50 | 304 | 0.9 | 1.7 | 0.00 | 0.00 | 0.00 | 55 | 1016.1 |
| 20260508020724 | 49 | 296 | 0.0 | 0.0 | 0.00 | 0.00 | 0.00 | 57 | 1016.1 |
| 20260508020221 | 49 | 296 | 0.0 | 0.0 | 0.00 | 0.00 | 0.00 | 58 | 1016.0 |
| 20260508015718 | 49 | 304 | 0.9 | 1.7 | 0.00 | 0.00 | 0.00 | 57 | 1015.9 |
| 20260508015215 | 49 | 296 | 0.0 | 0.0 | 0.00 | 0.00 | 0.00 | 57 | 1015.8 |
| 20260508014712 | 50 | 296 | 0.0 | 1.7 | 0.00 | 0.00 | 0.00 | 57 | 1015.6 |
| 20260508014209 | 50 | 296 | 0.0 | 0.9 | 0.00 | 0.00 | 0.00 | 56 | 1015.7 |
| 20260508013704 | 50 | 295 | 0.9 | 1.7 | 0.00 | 0.00 | 0.00 | 56 | 1015.6 |
| 20260508013201 | 50 | 304 | 0.9 | 1.7 | 0.00 | 0.00 | 0.00 | 55 | 1015.6 |
| 20260508012659 | 51 | 307 | 0.0 | 1.7 | 0.00 | 0.00 | 0.00 | 55 | 1015.7 |
| 20260508012155 | 51 | 286 | 0.0 | 0.9 | 0.00 | 0.00 | 0.00 | 54 | 1015.5 |
| 20260508011654 | 51 | 286 | 0.0 | 0.9 | 0.00 | 0.00 | 0.00 | 54 | 1015.5 |
| 20260508011151 | 51 | 295 | 0.0 | 0.0 | 0.00 | 0.00 | 0.00 | 54 | 1015.3 |
| 20260508010647 | 51 | 295 | 0.0 | 0.0 | 0.00 | 0.00 | 0.00 | 54 | 1015.3 |
| 20260508010145 | 51 | 295 | 0.0 | 0.0 | 0.00 | 0.00 | 0.00 | 53 | 1015.2 |
| 20260508005642 | 51 | 295 | 0.0 | 0.0 | 0.00 | 0.00 | 0.00 | 52 | 1015.4 |
| 20260508005139 | 52 | 295 | 0.0 | 0.0 | 0.00 | 0.00 | 0.00 | 51 | 1015.3 |
| 20260508004634 | 53 | 283 | 0.9 | 1.7 | 0.00 | 0.00 | 0.00 | 49 | 1015.4 |
| 20260508004131 | 53 | 283 | 0.9 | 1.7 | 0.00 | 0.00 | 0.00 | 50 | 1015.3 |
| 20260508003627 | 53 | 274 | 0.9 | 0.9 | 0.00 | 0.00 | 0.00 | 49 | 1015.1 |
| 20260508003125 | 54 | 285 | 0.9 | 2.6 | 0.00 | 0.00 | 0.00 | 49 | 1015.0 |
| 20260508002621 | 54 | 278 | 0.0 | 2.6 | 0.00 | 0.00 | 0.00 | 50 | 1015.2 |
| 20260508002119 | 54 | 285 | 2.6 | 3.5 | 0.00 | 0.00 | 0.00 | 48 | 1014.9 |
| 20260508001614 | 55 | 287 | 1.7 | 7.0 | 0.00 | 0.00 | 0.00 | 48 | 1014.9 |
| 20260508001111 | 55 | 275 | 1.7 | 3.5 | 0.00 | 0.00 | 0.00 | 48 | 1014.9 |
| 20260508000606 | 55 | 314 | 0.0 | 6.1 | 0.00 | 0.00 | 0.00 | 48 | 1014.7 |
| 20260508000104 | 55 | 308 | 1.7 | 2.6 | 0.00 | 0.00 | 0.00 | 46 | 1014.9 |
| 20260507235601 | 56 | 287 | 2.6 | 5.2 | 0.00 | 0.00 | 0.00 | 47 | 1014.7 |
| 20260507235058 | 56 | 280 | 1.7 | 2.6 | 0.00 | 0.00 | 0.00 | 47 | 1014.9 |
| 20260507234554 | 56 | 285 | 0.9 | 5.2 | 0.00 | 0.00 | 0.00 | 47 | 1014.7 |
| 20260507234051 | 56 | 298 | 5.2 | 7.0 | 0.00 | 0.00 | 0.00 | 45 | 1014.7 |
| 20260507233548 | 57 | 293 | 2.6 | 7.8 | 0.00 | 0.00 | 0.00 | 44 | 1014.4 |
| 20260507233047 | 57 | 300 | 5.2 | 7.8 | 0.00 | 0.00 | 0.00 | 43 | 1014.6 |
| 20260507232542 | 57 | 265 | 4.3 | 7.0 | 0.00 | 0.00 | 0.00 | 44 | 1014.6 |
| 20260507232040 | 58 | 257 | 0.9 | 9.6 | 0.00 | 0.00 | 0.00 | 45 | 1014.4 |
| 20260507231536 | 58 | 292 | 2.6 | 7.8 | 0.00 | 0.00 | 0.00 | 41 | 1014.5 |
| 20260507231034 | 59 | 262 | 4.3 | 7.0 | 0.00 | 0.00 | 0.00 | 40 | 1014.4 |
| 20260507230530 | 60 | 312 | 0.9 | 5.2 | 0.00 | 0.00 | 0.00 | 42 | 1014.4 |
| 20260507230027 | 60 | 312 | 4.3 | 5.2 | 0.00 | 0.00 | 0.00 | 41 | 1014.2 |
| 20260507225522 | 60 | 279 | 4.3 | 11.3 | 0.00 | 0.00 | 0.00 | 39 | 1014.0 |
| 20260507225018 | 60 | 225 | 5.2 | 7.8 | 0.00 | 0.00 | 0.00 | 39 | 1014.1 |
| 20260507224514 | 60 | 264 | 2.6 | 9.6 | 0.00 | 0.00 | 0.00 | 40 | 1014.2 |
| 20260507224011 | 60 | 273 | 1.7 | 8.7 | 0.00 | 0.00 | 0.00 | 38 | 1014.0 |
| 20260507223507 | 60 | 270 | 5.2 | 7.8 | 0.00 | 0.00 | 0.00 | 39 | 1014.2 |
| 20260507223004 | 61 | 275 | 5.2 | 7.8 | 0.00 | 0.00 | 0.00 | 35 | 1014.0 |
| 20260507222501 | 61 | 290 | 4.3 | 7.0 | 0.00 | 0.00 | 0.00 | 36 | 1014.0 |
| 20260507221956 | 62 | 307 | 3.5 | 3.5 | 0.00 | 0.00 | 0.00 | 36 | 1014.0 |
| 20260507221448 | 61 | 244 | 1.7 | 7.0 | 0.00 | 0.00 | 0.00 | 37 | 1013.8 |
| 20260507220945 | 62 | 219 | 3.5 | 7.0 | 0.00 | 0.00 | 0.00 | 37 | 1013.8 |
| 20260507220442 | 62 | 221 | 1.7 | 5.2 | 0.00 | 0.00 | 0.00 | 39 | 1013.6 |
| 20260507215938 | 61 | 271 | 3.5 | 6.1 | 0.00 | 0.00 | 0.00 | 38 | 1013.8 |
| 20260507215430 | 62 | 269 | 3.5 | 7.0 | 0.00 | 0.00 | 0.00 | 37 | 1013.8 |
| 20260507214927 | 62 | 274 | 4.3 | 6.1 | 0.00 | 0.00 | 0.00 | 36 | 1013.8 |
| 20260507214425 | 61 | 239 | 4.3 | 7.8 | 0.00 | 0.00 | 0.00 | 37 | 1013.6 |
| 20260507213920 | 61 | 261 | 6.1 | 8.7 | 0.00 | 0.00 | 0.00 | 36 | 1013.6 |
| 20260507213417 | 62 | 274 | 3.5 | 6.1 | 0.00 | 0.00 | 0.00 | 37 | 1013.4 |
| 20260507212914 | 62 | 247 | 4.3 | 6.1 | 0.00 | 0.00 | 0.00 | 38 | 1013.3 |
| 20260507212409 | 61 | 307 | 5.2 | 7.0 | 0.00 | 0.00 | 0.00 | 37 | 1013.5 |
| 20260507211906 | 62 | 283 | 5.2 | 8.7 | 0.00 | 0.00 | 0.00 | 39 | 1013.4 |
| 20260507211403 | 62 | 0 | 3.5 | 5.2 | 0.00 | 0.00 | 0.00 | 36 | 1013.1 |
| 20260507210900 | 63 | 253 | 2.6 | 3.5 | 0.00 | 0.00 | 0.00 | 35 | 1013.2 |
| 20260507210357 | 62 | 278 | 1.7 | 5.2 | 0.00 | 0.00 | 0.00 | 37 | 1013.4 |
| 20260507205853 | 62 | 271 | 5.2 | 6.1 | 0.00 | 0.00 | 0.00 | 35 | 1013.2 |
| 20260507205350 | 62 | 274 | 3.5 | 7.8 | 0.00 | 0.00 | 0.00 | 37 | 1013.2 |
| 20260507204846 | 62 | 236 | 3.5 | 7.0 | 0.00 | 0.00 | 0.00 | 39 | 1013.2 |
| 20260507204343 | 62 | 231 | 1.7 | 7.8 | 0.00 | 0.00 | 0.00 | 41 | 1013.1 |
| 20260507203841 | 63 | 277 | 4.3 | 7.0 | 0.00 | 0.00 | 0.00 | 40 | 1013.0 |
| 20260507203339 | 62 | 223 | 1.7 | 6.1 | 0.00 | 0.00 | 0.00 | 37 | 1013.0 |
| 20260507202835 | 63 | 13 | 5.2 | 8.7 | 0.00 | 0.00 | 0.00 | 37 | 1013.1 |
| 20260507202331 | 61 | 236 | 1.7 | 7.0 | 0.00 | 0.00 | 0.00 | 41 | 1013.1 |
| 20260507201827 | 62 | 278 | 4.3 | 7.8 | 0.00 | 0.00 | 0.00 | 41 | 1013.2 |
| 20260507201323 | 61 | 261 | 3.5 | 6.1 | 0.00 | 0.00 | 0.00 | 44 | 1013.2 |
| 20260507200819 | 61 | 304 | 3.5 | 7.0 | 0.00 | 0.00 | 0.00 | 41 | 1013.3 |
| 20260507200315 | 63 | 272 | 1.7 | 5.2 | 0.00 | 0.00 | 0.00 | 45 | 1013.1 |
| 20260507195811 | 61 | 243 | 2.6 | 9.6 | 0.00 | 0.00 | 0.00 | 43 | 1013.2 |
| 20260507195309 | 62 | 271 | 3.5 | 7.8 | 0.00 | 0.00 | 0.00 | 41 | 1013.3 |
| 20260507194806 | 62 | 248 | 3.5 | 7.0 | 0.00 | 0.00 | 0.00 | 42 | 1013.3 |
| 20260507194302 | 62 | 228 | 2.6 | 9.6 | 0.00 | 0.00 | 0.00 | 40 | 1013.3 |
| 20260507193758 | 63 | 295 | 6.1 | 12.2 | 0.00 | 0.00 | 0.00 | 41 | 1013.5 |
| 20260507193250 | 62 | 19 | 2.6 | 5.2 | 0.00 | 0.00 | 0.00 | 46 | 1013.5 |
| 20260507192746 | 62 | 281 | 3.5 | 7.0 | 0.00 | 0.00 | 0.00 | 45 | 1013.8 |
| 20260507192243 | 62 | 271 | 2.6 | 9.6 | 0.00 | 0.00 | 0.00 | 41 | 1013.5 |
| 20260507191739 | 62 | 286 | 1.7 | 3.5 | 0.00 | 0.00 | 0.00 | 47 | 1013.9 |
| 20260507191236 | 61 | 194 | 1.7 | 7.0 | 0.00 | 0.00 | 0.00 | 41 | 1014.0 |
| 20260507190732 | 63 | 267 | 5.2 | 8.7 | 0.00 | 0.00 | 0.00 | 39 | 1013.9 |
| 20260507190231 | 63 | 234 | 1.7 | 3.5 | 0.00 | 0.00 | 0.00 | 40 | 1013.9 |
| 20260507185730 | 62 | 249 | 3.5 | 5.2 | 0.00 | 0.00 | 0.00 | 42 | 1014.1 |
| 20260507185226 | 62 | 276 | 3.5 | 7.8 | 0.00 | 0.00 | 0.00 | 44 | 1014.0 |
| 20260507184724 | 62 | 290 | 3.5 | 7.0 | 0.00 | 0.00 | 0.00 | 43 | 1014.1 |
| 20260507184221 | 63 | 319 | 0.0 | 3.5 | 0.00 | 0.00 | 0.00 | 45 | 1013.9 |
| 20260507183717 | 62 | 309 | 3.5 | 9.6 | 0.00 | 0.00 | 0.00 | 41 | 1013.9 |
| 20260507183209 | 63 | 273 | 1.7 | 3.5 | 0.00 | 0.00 | 0.00 | 43 | 1014.0 |
| 20260507182706 | 61 | 283 | 0.9 | 1.7 | 0.00 | 0.00 | 0.00 | 43 | 1013.9 |
| 20260507182201 | 60 | 269 | 2.6 | 7.8 | 0.00 | 0.00 | 0.00 | 45 | 1014.2 |
| 20260507181658 | 61 | 227 | 3.5 | 7.0 | 0.00 | 0.00 | 0.00 | 45 | 1013.8 |
| 20260507181154 | 60 | 210 | 4.3 | 12.2 | 0.00 | 0.00 | 0.00 | 45 | 1014.0 |
| 20260507180651 | 60 | 257 | 3.5 | 5.2 | 0.00 | 0.00 | 0.00 | 44 | 1014.0 |
| 20260507180148 | 60 | 279 | 1.7 | 7.8 | 0.00 | 0.00 | 0.00 | 50 | 1013.8 |
| 20260507175643 | 61 | 247 | 6.1 | 8.7 | 0.00 | 0.00 | 0.00 | 44 | 1013.9 |
| 20260507175141 | 60 | 236 | 2.6 | 8.7 | 0.00 | 0.00 | 0.00 | 46 | 1014.2 |
| 20260507174638 | 59 | 257 | 0.9 | 6.1 | 0.00 | 0.00 | 0.00 | 46 | 1014.0 |
| 20260507174136 | 61 | 1 | 4.3 | 6.1 | 0.00 | 0.00 | 0.00 | 42 | 1014.0 |
| 20260507173633 | 61 | 277 | 0.0 | 3.5 | 0.00 | 0.00 | 0.00 | 43 | 1014.2 |
| 20260507173130 | 62 | 253 | 2.6 | 7.8 | 0.00 | 0.00 | 0.00 | 52 | 1014.2 |
| 20260507172626 | 59 | 287 | 3.5 | 7.0 | 0.00 | 0.00 | 0.00 | 49 | 1014.1 |
| 20260507172124 | 60 | 264 | 2.6 | 2.6 | 0.00 | 0.00 | 0.00 | 48 | 1014.3 |
| 20260507171618 | 60 | 255 | 0.0 | 1.7 | 0.00 | 0.00 | 0.00 | 45 | 1014.3 |
| 20260507171116 | 59 | 272 | 1.7 | 5.2 | 0.00 | 0.00 | 0.00 | 49 | 1014.4 |
| 20260507170613 | 59 | 258 | 5.2 | 7.0 | 0.00 | 0.00 | 0.00 | 47 | 1014.4 |
| 20260507170110 | 57 | 225 | 0.9 | 5.2 | 0.00 | 0.00 | 0.00 | 47 | 1014.4 |
| 20260507165605 | 58 | 301 | 0.0 | 2.6 | 0.00 | 0.00 | 0.00 | 51 | 1014.5 |
| 20260507165102 | 59 | 337 | 2.6 | 3.5 | 0.00 | 0.00 | 0.00 | 48 | 1014.5 |
| 20260507164558 | 58 | 317 | 4.3 | 7.8 | 0.00 | 0.00 | 0.00 | 49 | 1014.6 |
| 20260507164055 | 57 | 234 | 3.5 | 6.1 | 0.00 | 0.00 | 0.00 | 55 | 1014.7 |
| 20260507163552 | 59 | 265 | 3.5 | 6.1 | 0.00 | 0.00 | 0.00 | 52 | 1014.7 |
| 20260507163050 | 59 | 298 | 1.7 | 5.2 | 0.00 | 0.00 | 0.00 | 56 | 1014.5 |
| 20260507162550 | 60 | 98 | 0.9 | 3.5 | 0.00 | 0.00 | 0.00 | 46 | 1014.7 |
| 20260507162048 | 61 | 255 | 3.5 | 7.8 | 0.00 | 0.00 | 0.00 | 51 | 1014.6 |
| 20260507161544 | 58 | 276 | 1.7 | 6.1 | 0.00 | 0.00 | 0.00 | 58 | 1014.9 |
| 20260507161040 | 58 | 279 | 5.2 | 7.8 | 0.00 | 0.00 | 0.00 | 50 | 1014.8 |
| 20260507160537 | 57 | 305 | 2.6 | 8.7 | 0.00 | 0.00 | 0.00 | 51 | 1014.8 |
| 20260507160033 | 60 | 122 | 0.9 | 3.5 | 0.00 | 0.00 | 0.00 | 50 | 1014.7 |
| 20260507155528 | 59 | 236 | 1.7 | 1.7 | 0.00 | 0.00 | 0.00 | 52 | 1014.7 |
| 20260507155026 | 56 | 270 | 2.6 | 6.1 | 0.00 | 0.00 | 0.00 | 53 | 1014.9 |
| 20260507154522 | 59 | 274 | 1.7 | 6.1 | 0.00 | 0.00 | 0.00 | 51 | 1014.8 |
| 20260507154020 | 59 | 286 | 0.9 | 2.6 | 0.00 | 0.00 | 0.00 | 54 | 1014.8 |
| 20260507153516 | 58 | 258 | 3.5 | 5.2 | 0.00 | 0.00 | 0.00 | 53 | 1015.0 |
| 20260507153012 | 57 | 275 | 3.5 | 3.5 | 0.00 | 0.00 | 0.00 | 54 | 1014.9 |
| 20260507152508 | 58 | 287 | 2.6 | 5.2 | 0.00 | 0.00 | 0.00 | 53 | 1014.9 |
| 20260507152005 | 57 | 279 | 2.6 | 5.2 | 0.00 | 0.00 | 0.00 | 55 | 1014.9 |
| 20260507151501 | 56 | 265 | 1.7 | 5.2 | 0.00 | 0.00 | 0.00 | 58 | 1015.0 |
| 20260507150958 | 57 | 275 | 3.5 | 5.2 | 0.00 | 0.00 | 0.00 | 57 | 1015.0 |
| 20260507150455 | 58 | 297 | 0.9 | 2.6 | 0.00 | 0.00 | 0.00 | 56 | 1015.0 |
| 20260507145951 | 59 | 148 | 0.9 | 2.6 | 0.00 | 0.00 | 0.00 | 55 | 1015.1 |
| 20260507145447 | 57 | 264 | 1.7 | 3.5 | 0.00 | 0.00 | 0.00 | 61 | 1015.0 |
| 20260507144944 | 57 | 249 | 1.7 | 3.5 | 0.00 | 0.00 | 0.00 | 59 | 1015.2 |
| 20260507144441 | 57 | 8 | 2.6 | 7.0 | 0.00 | 0.00 | 0.00 | 57 | 1015.3 |
| 20260507143938 | 56 | 279 | 2.6 | 3.5 | 0.00 | 0.00 | 0.00 | 63 | 1015.3 |
| 20260507143436 | 56 | 271 | 3.5 | 3.5 | 0.00 | 0.00 | 0.00 | 57 | 1015.4 |
| 20260507142932 | 57 | 259 | 1.7 | 6.1 | 0.00 | 0.00 | 0.00 | 57 | 1015.4 |
| 20260507142428 | 57 | 247 | 0.9 | 1.7 | 0.00 | 0.00 | 0.00 | 58 | 1015.4 |
| 20260507141926 | 56 | 276 | 2.6 | 6.1 | 0.00 | 0.00 | 0.00 | 61 | 1015.5 |
| 20260507141421 | 56 | 275 | 4.3 | 5.2 | 0.00 | 0.00 | 0.00 | 63 | 1015.4 |
| 20260507140918 | 56 | 278 | 1.7 | 2.6 | 0.00 | 0.00 | 0.00 | 66 | 1015.4 |
| 20260507140415 | 55 | 81 | 1.7 | 2.6 | 0.00 | 0.00 | 0.00 | 63 | 1015.5 |
| 20260507135913 | 55 | 109 | 0.9 | 2.6 | 0.00 | 0.00 | 0.00 | 65 | 1015.7 |
| 20260507135409 | 55 | 251 | 1.7 | 5.2 | 0.00 | 0.00 | 0.00 | 68 | 1015.7 |
| 20260507134907 | 56 | 213 | 1.7 | 2.6 | 0.00 | 0.00 | 0.00 | 63 | 1015.8 |
| 20260507134402 | 55 | 264 | 0.9 | 2.6 | 0.00 | 0.00 | 0.00 | 64 | 1015.7 |
| 20260507133859 | 55 | 273 | 0.9 | 0.9 | 0.00 | 0.00 | 0.00 | 63 | 1015.8 |
| 20260507133354 | 56 | 273 | 2.6 | 2.6 | 0.00 | 0.00 | 0.00 | 69 | 1015.8 |
| 20260507132853 | 54 | 273 | 0.0 | 0.9 | 0.00 | 0.00 | 0.00 | 70 | 1015.9 |
| 20260507132349 | 55 | 273 | 0.9 | 1.7 | 0.00 | 0.00 | 0.00 | 69 | 1015.9 |
| 20260507131847 | 53 | 273 | 0.0 | 2.6 | 0.00 | 0.00 | 0.00 | 70 | 1016.0 |
| 20260507131343 | 53 | 278 | 0.9 | 1.7 | 0.00 | 0.00 | 0.00 | 74 | 1015.9 |
| 20260507130840 | 53 | 278 | 0.0 | 1.7 | 0.00 | 0.00 | 0.00 | 74 | 1016.2 |
| 20260507130337 | 53 | 278 | 0.9 | 2.6 | 0.00 | 0.00 | 0.00 | 75 | 1016.0 |
| 20260507125836 | 53 | 278 | 0.0 | 0.0 | 0.00 | 0.00 | 0.00 | 74 | 1016.0 |
| 20260507125333 | 51 | 278 | 0.9 | 1.7 | 0.00 | 0.00 | 0.00 | 76 | 1015.9 |
| 20260507124830 | 52 | 278 | 1.7 | 1.7 | 0.00 | 0.00 | 0.00 | 77 | 1016.0 |
| 20260507124326 | 53 | 278 | 0.0 | 0.0 | 0.00 | 0.00 | 0.00 | 77 | 1015.9 |
| 20260507123825 | 52 | 277 | 0.0 | 0.0 | 0.00 | 0.00 | 0.00 | 81 | 1016.0 |
| 20260507123321 | 51 | 277 | 0.0 | 0.0 | 0.00 | 0.00 | 0.00 | 83 | 1016.0 |
| 20260507122818 | 50 | 277 | 0.0 | 0.0 | 0.00 | 0.00 | 0.00 | 84 | 1016.0 |
| 20260507122313 | 50 | 278 | 0.0 | 0.0 | 0.00 | 0.00 | 0.00 | 85 | 1015.9 |
| 20260507121810 | 49 | 277 | 0.0 | 0.0 | 0.00 | 0.00 | 0.00 | 86 | 1015.9 |
| 20260507121306 | 48 | 277 | 0.0 | 0.0 | 0.00 | 0.00 | 0.00 | 86 | 1016.0 |
| 20260507120802 | 48 | 277 | 0.9 | 0.9 | 0.00 | 0.00 | 0.00 | 86 | 1015.9 |
| 20260507120259 | 47 | 277 | 0.0 | 0.0 | 0.00 | 0.00 | 0.00 | 88 | 1016.0 |
| 20260507115755 | 47 | 277 | 0.0 | 0.0 | 0.00 | 0.00 | 0.00 | 88 | 1015.8 |
| 20260507115250 | 46 | 277 | 0.0 | 0.0 | 0.00 | 0.00 | 0.00 | 88 | 1015.9 |
| 20260507114746 | 47 | 277 | 0.0 | 0.0 | 0.00 | 0.00 | 0.00 | 88 | 1016.0 |
| 20260507114244 | 47 | 277 | 0.0 | 0.0 | 0.00 | 0.00 | 0.00 | 87 | 1015.8 |
| 20260507113741 | 49 | 277 | 0.0 | 0.0 | 0.00 | 0.00 | 0.00 | 84 | 1015.8 |
| 20260507113238 | 51 | 277 | 0.0 | 0.0 | 0.00 | 0.00 | 0.00 | 78 | 1015.8 |
| 20260507112736 | 49 | 277 | 0.0 | 0.0 | 0.00 | 0.00 | 0.00 | 82 | 1015.9 |
| 20260507112232 | 47 | 277 | 0.0 | 0.0 | 0.00 | 0.00 | 0.00 | 87 | 1015.8 |
| 20260507111730 | 45 | 277 | 0.0 | 0.0 | 0.00 | 0.00 | 0.00 | 88 | 1015.7 |
| 20260507111227 | 44 | 277 | 0.0 | 0.0 | 0.00 | 0.00 | 0.00 | 88 | 1015.7 |
| 20260507110723 | 44 | 277 | 0.0 | 0.0 | 0.00 | 0.00 | 0.00 | 88 | 1015.6 |
| 20260507110220 | 44 | 277 | 0.0 | 0.0 | 0.00 | 0.00 | 0.00 | 91 | 1015.6 |
| 20260507105717 | 44 | 277 | 0.0 | 0.0 | 0.00 | 0.00 | 0.00 | 93 | 1015.6 |
| 20260507105213 | 43 | 277 | 0.0 | 0.0 | 0.00 | 0.00 | 0.00 | 94 | 1015.4 |
| 20260507104710 | 42 | 277 | 0.0 | 0.0 | 0.00 | 0.00 | 0.00 | 94 | 1015.3 |
| 20260507104206 | 42 | 277 | 0.0 | 0.0 | 0.00 | 0.00 | 0.00 | 94 | 1015.2 |
| 20260507103702 | 42 | 277 | 0.0 | 0.0 | 0.00 | 0.00 | 0.00 | 92 | 1015.1 |
| 20260507103159 | 42 | 277 | 0.0 | 0.0 | 0.00 | 0.00 | 0.00 | 89 | 1015.0 |
| 20260507102655 | 42 | 277 | 0.0 | 0.0 | 0.00 | 0.00 | 0.00 | 89 | 1015.2 |
| 20260507102152 | 41 | 277 | 0.0 | 0.0 | 0.00 | 0.00 | 0.00 | 90 | 1015.1 |
| 20260507101647 | 41 | 277 | 0.0 | 0.0 | 0.00 | 0.00 | 0.00 | 88 | 1015.1 |
| 20260507101143 | 41 | 277 | 0.0 | 0.0 | 0.00 | 0.00 | 0.00 | 88 | 1014.9 |
| 20260507100641 | 42 | 277 | 0.0 | 0.0 | 0.00 | 0.00 | 0.00 | 87 | 1015.0 |
| 20260507100140 | 41 | 277 | 0.0 | 0.0 | 0.00 | 0.00 | 0.00 | 87 | 1014.8 |
| 20260507095637 | 41 | 277 | 0.0 | 0.0 | 0.00 | 0.00 | 0.00 | 87 | 1015.0 |
| 20260507095133 | 42 | 277 | 0.0 | 0.0 | 0.00 | 0.00 | 0.00 | 87 | 1014.9 |
| 20260507094629 | 42 | 277 | 0.0 | 0.0 | 0.00 | 0.00 | 0.00 | 86 | 1015.0 |
| 20260507094126 | 41 | 277 | 0.0 | 0.0 | 0.00 | 0.00 | 0.00 | 88 | 1015.0 |
| 20260507093624 | 41 | 277 | 0.0 | 0.0 | 0.00 | 0.00 | 0.00 | 88 | 1014.9 |
| 20260507093123 | 41 | 277 | 0.0 | 0.0 | 0.00 | 0.00 | 0.00 | 87 | 1015.1 |